TimeCET,TemperatureF,Dew PointF,Humidity,Sea Level PressureIn,VisibilityMPH,Wind Direction,Wind SpeedMPH,Gust SpeedMPH,PrecipitationIn,Events,Conditions,WindDirDegrees,DateUTC
12:00 AM,55.4,44.6,67,29.83,6.2,SW,8.1,-,N/A,,Partly Cloudy,230,2012-11-02 23:00:00
12:30 AM,55.4,44.6,67,29.83,6.2,WSW,5.8,-,N/A,,Partly Cloudy,240,2012-11-02 23:30:00
1:00 AM,55.4,46.4,72,29.83,6.2,SW,4.6,-,N/A,,Partly Cloudy,220,2012-11-03 00:00:00
1:30 AM,55.4,46.4,72,29.80,6.2,SW,11.5,-,N/A,,Partly Cloudy,220,2012-11-03 00:30:00
2:00 AM,55.4,46.4,72,29.80,6.2,SSW,9.2,-,N/A,,Partly Cloudy,210,2012-11-03 01:00:00
2:30 AM,55.4,46.4,72,29.80,6.2,SSW,12.7,-,N/A,,Partly Cloudy,210,2012-11-03 01:30:00
3:00 AM,55.4,46.4,72,29.80,6.2,SSW,10.4,-,N/A,,Partly Cloudy,210,2012-11-03 02:00:00
3:30 AM,55.4,46.4,72,29.77,6.2,SSW,8.1,-,N/A,,Scattered Clouds,200,2012-11-03 02:30:00
4:00 AM,55.4,46.4,72,29.77,6.2,South,3.5,-,N/A,,Scattered Clouds,190,2012-11-03 03:00:00
4:30 AM,55.4,46.4,72,29.77,6.2,Variable,2.3,-,N/A,,Scattered Clouds,0,2012-11-03 03:30:00
5:00 AM,55.4,44.6,67,29.74,6.2,South,4.6,-,N/A,,Scattered Clouds,180,2012-11-03 04:00:00
5:30 AM,55.4,44.6,67,29.74,6.2,SSW,3.5,-,N/A,,Scattered Clouds,210,2012-11-03 04:30:00
6:00 AM,57.2,44.6,63,29.74,6.2,SSW,9.2,-,N/A,,Scattered Clouds,200,2012-11-03 05:00:00
6:30 AM,55.4,44.6,67,29.74,6.2,SSW,8.1,-,N/A,,Scattered Clouds,200,2012-11-03 05:30:00
7:00 AM,55.4,46.4,72,29.74,6.2,SSW,11.5,-,N/A,,Partly Cloudy,200,2012-11-03 06:00:00
7:30 AM,55.4,46.4,72,29.74,6.2,SSW,5.8,-,N/A,,Scattered Clouds,200,2012-11-03 06:30:00
8:00 AM,55.4,44.6,67,29.74,6.2,South,8.1,-,N/A,,Scattered Clouds,190,2012-11-03 07:00:00
8:30 AM,55.4,44.6,67,29.74,6.2,SSW,8.1,-,N/A,,Scattered Clouds,210,2012-11-03 07:30:00
9:00 AM,55.4,44.6,67,29.74,6.2,SW,5.8,-,N/A,,Scattered Clouds,230,2012-11-03 08:00:00
9:30 AM,55.4,44.6,67,29.74,6.2,SW,8.1,-,N/A,,Scattered Clouds,220,2012-11-03 08:30:00
10:00 AM,55.4,46.4,72,29.74,6.2,SSW,4.6,-,N/A,,Scattered Clouds,200,2012-11-03 09:00:00
10:30 AM,55.4,46.4,72,29.74,6.2,SSW,4.6,-,N/A,,Scattered Clouds,210,2012-11-03 09:30:00
11:00 AM,57.2,46.4,67,29.74,6.2,SW,3.5,-,N/A,,Scattered Clouds,220,2012-11-03 10:00:00
11:30 AM,57.2,46.4,67,29.74,6.2,South,5.8,-,N/A,,Scattered Clouds,180,2012-11-03 10:30:00
12:00 PM,57.2,48.2,72,29.74,6.2,South,8.1,-,N/A,,Scattered Clouds,170,2012-11-03 11:00:00
12:30 PM,57.2,46.4,67,29.74,6.2,South,6.9,-,N/A,,Scattered Clouds,190,2012-11-03 11:30:00
1:00 PM,57.2,48.2,72,29.71,6.2,Variable,1.2,-,N/A,,Scattered Clouds,0,2012-11-03 12:00:00
1:30 PM,57.2,48.2,72,29.71,6.2,SSW,6.9,-,N/A,,Scattered Clouds,200,2012-11-03 12:30:00
2:00 PM,59.0,48.2,67,29.71,6.2,SSW,4.6,-,N/A,,Scattered Clouds,200,2012-11-03 13:00:00
2:30 PM,57.2,51.8,82,29.71,5.6,South,2.3,-,N/A,Rain,Light Rain,170,2012-11-03 13:30:00
3:00 PM,55.4,51.8,88,29.68,5.6,WSW,3.5,-,N/A,Rain,Light Rain,250,2012-11-03 14:00:00
3:30 PM,55.4,53.6,94,29.68,5.6,Variable,1.2,-,N/A,Rain,Light Rain,0,2012-11-03 14:30:00
4:00 PM,55.4,53.6,94,29.71,6.2,Calm,Calm,-,N/A,Rain,Light Rain,0,2012-11-03 15:00:00
4:30 PM,53.6,51.8,94,29.68,6.2,WSW,3.5,-,N/A,Rain,Light Rain,250,2012-11-03 15:30:00
5:00 PM,53.6,51.8,94,29.68,6.2,Calm,Calm,-,N/A,,Mostly Cloudy,0,2012-11-03 16:00:00
5:30 PM,53.6,51.8,94,29.71,6.2,Variable,1.2,-,N/A,,Mostly Cloudy,0,2012-11-03 16:30:00
6:00 PM,53.6,51.8,94,29.68,6.2,NNE,2.3,-,N/A,,Mostly Cloudy,20,2012-11-03 17:00:00
6:30 PM,51.8,51.8,100,29.71,6.2,NNW,3.5,-,N/A,,Mostly Cloudy,330,2012-11-03 17:30:00
7:00 PM,53.6,51.8,94,29.71,6.2,NW,1.2,-,N/A,,Mostly Cloudy,320,2012-11-03 18:00:00
7:30 PM,50.0,50.0,100,29.71,6.2,Calm,Calm,-,N/A,,Scattered Clouds,0,2012-11-03 18:30:00
8:00 PM,50.0,50.0,100,29.71,6.2,Calm,Calm,-,N/A,,Mostly Cloudy,0,2012-11-03 19:00:00
8:30 PM,50.0,50.0,100,29.71,6.2,Calm,Calm,-,N/A,,Scattered Clouds,0,2012-11-03 19:30:00
9:00 PM,50.0,50.0,100,29.71,6.2,Variable,1.2,-,N/A,,Scattered Clouds,0,2012-11-03 20:00:00
9:30 PM,48.2,48.2,100,29.71,6.2,NE,2.3,-,N/A,,Partly Cloudy,40,2012-11-03 20:30:00
10:00 PM,48.2,48.2,100,29.74,6.2,Calm,Calm,-,N/A,,Scattered Clouds,0,2012-11-03 21:00:00
10:30 PM,48.2,48.2,100,29.71,6.2,Calm,Calm,-,N/A,,Scattered Clouds,0,2012-11-03 21:30:00
11:00 PM,48.2,48.2,100,29.71,6.2,Calm,Calm,-,N/A,,Scattered Clouds,0,2012-11-03 22:00:00
11:30 PM,48.2,48.2,100,29.71,6.2,ENE,2.3,-,N/A,,Scattered Clouds,70,2012-11-03 22:30:00